www.pogodaiklimat.ru

Погода и климат >> Архив погоды >> Бангладеш >> Ситакунду


ПОГОДА в Ситакунду

  • Прогноз погоды в Ситакунду
  • Монитор погоды в Ситакунду

АРХИВ ПОГОДЫ в Ситакунду

Время (UTC), дата Ветер
(напр.,м/с)
 
Видим.   Явления Облачность Т
(С)
Тd
(С)
f
(%)
Тe
(С)
Тes
(С)
Комфортность P
(гПа)
Po
(гПа)
Тmin
(С)
Tmax
(С)
R
(мм)
R24
(мм)
S
(см)
18 12.06 штиль 0 5000 м мгла ясно +28.5 +28.0 97 +47 +47 опасность
перегрева
1001.5 1000.7
00 13.06 штиль 0 4000 м мгла 4/0
[Cc]
+27.5 +26.0 92 +41 +42 опасность
перегрева
999.0 998.2
12 13.06 штиль 0 5000 м мгла {гроза} 9/5 300 м
[St As trans]
+27.7 +26.0 90 +41 +42 опасность
перегрева
1007.8 1006.9 +35.6
00 14.06 штиль 0 6000 м мгла 10/5 540 м
[Sc diur, vesp As op]
+27.6 +27.0 97 +43 +44 опасность
перегрева
1002.2 1001.3
06 14.06 штиль 0 6000 м слаб. дождь 10/5 300 м
[Cb calv As op]
+30.5 +28.0 87 +51 +54 опасность
перегрева
999.9 999.0 1
15 14.06 штиль 0 5000 м мгла 10/6 540 м
[Sc diur, vesp As trans]
+29.0 +28.0 94 +48 +48 опасность
перегрева
1000.1 999.2
18 14.06 штиль 0 5000 м мгла 9/4 540 м
[Sc diur, vesp As trans]
+28.6 +27.0 91 +45 +45 опасность
перегрева
1001.2 1000.3
00 15.06 ЮВ 1 6000 м мгла 10/5 540 м
[Sc diur, vesp As op]
+27.5 +26.0 92 +41 +41 опасность
перегрева
1000.9 1000.0
03 15.06 ЮВ 1 6000 м мгла 8/4 450 м
[Sc diur, vesp As trans]
+30.6 +27.0 81 +48 +53 опасность
перегрева
1006.1 1005.3 +27.2
06 15.06 ЮВ 3 4000 м гроза, ливневой дождь 10/6 540 м
[Cb calv As op]
+26.5 +24.0 86 +37 +38 очень
душно
1002.3 1001.4 4
09 15.06 штиль 0 5000 м слаб. морось {гроза, дождь} 10/4 300 м
[Cb calv As op]
+23.6 +23.6 100 +32 +34 очень
душно
1000.6 999.8
12 15.06 штиль 0 5000 м мгла {гроза, дождь} 10/6 300 м
[St As op]
+24.5 +24.0 97 +34 +34 очень
душно
999.4 998.5 +31.0 62
18 15.06 штиль 0 5000 м мгла 10/5 540 м
[Sc diur, vesp As op]
+23.8 +23.0 95 +32 +32 очень
душно
1001.5 1000.6
00 16.06 штиль 0 5000 м мгла 9/5 540 м
[Sc diur, vesp Ac trans]
+26.2 +24.0 88 +36 +36 очень
душно
1002.0 1001.1
03 16.06 ЮЗ 2 10 км ясно +30.5 +26.0 77 +46 +60 опасность
перегрева
1001.1 1000.3 +22.0
06 16.06 штиль 0 6000 м ясно +32.7 +27.0 72 +51 +81 опасность
перегрева
1001.5 1000.7
09 16.06 штиль 0 6000 м 8/4 540 м
[Sc diur, vesp Ac trans]
+32.0 +27.0 75 +50 +56 опасность
перегрева
1000.1 999.2
12 16.06 штиль 0 6000 м 6/6 540 м
[Sc diur, vesp]
+30.5 +28.0 87 +51 +51 опасность
перегрева
999.5 998.6 +33.2
15 16.06 штиль 0 6000 м 6/6 540 м
[Sc diur, vesp]
+29.2 +28.0 93 +48 +48 опасность
перегрева
1001.3 1000.4
18 16.06 штиль 0 6000 м 6/6 540 м
[Sc diur, vesp]
+29.0 +28.0 94 +48 +48 опасность
перегрева
1001.1 1000.2
00 17.06 ЮВ 1 6000 м 4/4 540 м
[Sc diur, vesp]
+28.4 +26.0 87 +43 +43 опасность
перегрева
1001.1 1000.2
03 17.06 ЮВ 1 6000 м 5/3 540 м
[Sc diur, vesp Ac trans]
+31.5 +28.0 82 +52 +62 опасность
перегрева
1001.4 1000.6 +28.0
06 17.06 штиль 0 6000 м 5/5 540 м
[Sc diur, vesp]
+33.1 +26.0 66 +49 +64 опасность
перегрева
1001.3 1000.4
09 17.06 штиль 0 7000 м ясно +34.0 +28.0 71 +55 +71 опасность
перегрева
1000.4 999.5
12 17.06 штиль 0 6000 м ясно +30.4 +27.0 82 +48 +48 опасность
перегрева
999.5 998.6 +34.4
15 17.06 6000 м н/о +29.5 +29.0 97 +51 +51 опасность
перегрева
1000.7 999.8
18 17.06 штиль 0 6000 м 6/6 540 м
[Sc diur, vesp]
+29.0 +27.0 89 +46 +46 опасность
перегрева
1001.0 1000.2
03 18.06 штиль 0 6000 м ясно +30.8 +26.0 76 +46 +64 опасность
перегрева
1004.7 1003.9 +27.0
06 18.06 штиль 0 7000 м 4/4 540 м
[Sc diur, vesp Cc]
+34.0 +26.0 63 +50 +68 опасность
перегрева
1000.6 999.7
09 18.06 штиль 0 7000 м 3/3 540 м
[Sc diur, vesp]
+34.3 +27.0 66 +52 +64 опасность
перегрева
998.0 997.2
12 18.06 штиль 0 7000 м ясно +33.3 +27.0 70 +52 +52 опасность
перегрева
998.5 997.7 +35.0
15 18.06 штиль 0 6000 м зарница 5/5 300 м
[Cb calv]
+29.7 +28.0 91 +49 +49 опасность
перегрева
1001.1 1000.2
18 18.06 штиль 0 6000 м слаб. морось 10/6 300 м
[Cb calv As op]
+28.5 +28.0 97 +47 +47 опасность
перегрева
1001.4 1000.5 1
00 19.06 ЮВ 1 6000 м мгла 9/6 540 м
[Sc diur, vesp As trans]
+27.0 +26.0 94 +40 +41 очень
душно
1001.0 1000.1
03 19.06 штиль 0 6000 м ясно +32.2 +26.0 70 +48 +66 опасность
перегрева
1001.0 1000.2 +27.0

 

Местоположение метеостанции Ситакунду (Бангладеш): широта 22.58 долгота 91.70 высота над уровнем моря 44 м.

В архиве по умолчанию представлена погода в Ситакунду за последнюю неделю. Архивные данные за месяц целиком и за предыдущие месяцы, начиная с января 2011 года, Вы можете получить, выбрав интересующий диапазон дат из раскрывающегося списка и нажав кнопку "Ввод!".


*Определитесь, кто Вы:
робот инопланетянин человек

Внимание! Время в таблицах - всемирное. Для получения местного времени необходимо прибавить поправку, которая равна 6.5 ч.

Смотрите также архив погоды в соседних городах и на ближайших метеорологических станциях:

Погода в Сандвипе (Бангладеш) (30 км)
Погода в Читтагонге (Бангладеш) (37 км)
Погода в Рангамати (Бангладеш) (52 км)
Погода в Фени (Бангладеш) (58 км)
Погода в Хатии (Бангладеш) (64 км)
Погода в Маиидиcурте (Бангладеш) (69 км)
Погода в Кутапдии (Бангладеш) (86 км)
Погода в Бхоле (Бангладеш) (108 км)
Погода в Комилле (Бангладеш) (109 км)
Погода в Чандпуре (Бангладеш) (128 км)

Пояснения к столбцам:

Ветер - указаны скорость ветра в м/с - средняя за 10 мин, порывы в срок и между сроками (в фигурных скобках) и направление, откуда дует ветер: С - северный, СВ - северо-восточный, В - восточный, ЮВ - юго-восточный, Ю - южный, ЮЗ - юго-западный, З - западный, СЗ - северо-западный.
Видимость - горизонтальная дальность видимости в метрах или километрах. При видимости от 1 до 10 км при отсутствии осадков обычно наблюдается дымка, при ухудшении видимости до 1 км и менее - туман. В сухую погоду видимость может ухудшаться дымом, пылью или мглою.
Явления - указаны атмосферные явления, наблюдавшиеся в срок или в последний час перед сроком; фигурными скобками обозначены явления, наблюдавшиеся между сроками (за 1-3 часа до срока); квадратными скобками обозначены град или гололедные отложения с указанием их диаметра в мм.
Облачность - указаны через наклонную черту общая и нижняя облачность в баллах и высота нижней границы облаков в метрах; квадратными скобками обозначены формы облаков: Ci - перистые, Cs - перисто-слоистые, Cc - перисто-кучевые, Ac - высококучевые, As - высокослоистые, Sc - слоисто-кучевые, Ns - слоисто-дождевые, Cu - кучевые, Cb - кучево-дождевые. Подробнее классификацию облаков см. в Атласе облаков (PDF).
T - Температура воздуха - температура, измеренная на высоте 2 м над землей.
Td - Температура точки росы - температура, при понижении до которой содержащийся в воздухе водяной пар достигнет насыщения.
f - Относительная влажность воздуха - влажноcть воздуха, измеренная на высоте 2 м над землей.
Te - Эффективная температура - температура, которую ощущает одетый по сезону человек в тени. Характеристика душности погоды. При расчете учитывается влияние влажности воздуха и скорости ветра на теплоощущения человека.
Tes - Эффективная температура на солнце - температура, которую ощущает человек, с поправкой на солнечный нагрев. Характеристика знойности погоды. Зависит от высоты солнца над горизонтом, облачности и скорости ветра. Ночью, в пасмурную погоду, а также при ветре 12 м/с и более поправка равна нулю.
P - Атмосферное давление - приведенное к уровню моря атмосферное давление.
Po - Атмосферное давление - измеренное на уровне метеостанции атмосферное давление.
Tmin - Минимальная температура - минимум температуры воздуха на высоте 2 м над землей.
Tmax - Максимальная температура - максимум температуры воздуха на высоте 2 м над землей.
R - Количество осадков - Количество выпавших осадков за период времени, мм. При наведении курсора мыши на число - период времени, за который выпало указанное количество осадков.
R24 - Количество осадков - Количество выпавших осадков за 24 часа, мм.
S - Снежный покров - Высота снежного покрова, см. При наведении курсора мыши на число - состояние снежного покрова и степень покрытия местности в баллах.